Regional Weather Roundup
Issued by NWS Newport/Morehead, NC

Current Version | Previous Version | Graphics & Text | Print | Product List | Glossary Off
Versions: 1 2 3 4 5 6 7 8 9 10 11 12 13 14 15 16 17 18 19 20 21 22 23 24 25 26 27 28 29 30 31 32 33 34 35 36 37 38 39 40 41 42 43 44 45 46 47 48 49 50

000
ASUS42 KMHX 020013
RWRMHX
WEATHER ROUNDUP FOR EASTERN NORTH CAROLINA
NATIONAL WEATHER SERVICE NEWPORT/MOREHEAD CITY NC
800 PM EDT SAT AUG 01 2015

NOTE: "FAIR" INDICATES FEW OR NO CLOUDS BELOW 12,000 FEET
WITH NO SIGNIFICANT WEATHER AND/OR OBSTRUCTIONS TO VISIBILITY

NCZ015>017-031-032-045>047-102-103-020100-
NORTH COAST

CITY           SKY/WX    TMP DP  RH WIND       PRES   REMARKS
EDENTON          N/A     84  73  69 SE5       29.87R
ELIZABETH CITY CLEAR     82  70  66 S6        29.87R
KITTY HAWK     MOCLDY    83  72  69 S5        29.87R
MANTEO         CLEAR     82  75  79 S9        29.88R

$$

NCZ045>047-081-094-103-104-020100-
CENTRAL COAST

CITY           SKY/WX    TMP DP  RH WIND       PRES   REMARKS
FRISCO         MOCLDY    81  76  84 SW8       29.89R
SWANQUARTER      N/A     82 N/A N/A S14       29.85S

$$

NCZ095-097-098-100-101-020100-
SOUTHERN COAST

CITY           SKY/WX    TMP DP  RH WIND       PRES   REMARKS
BEAUFORT       PTCLDY    80  76  87 SW14      29.89S
CEDAR ISLAND     N/A     82 N/A N/A S3G13     29.94R
JACKSONVILLE   CLEAR     81  75  82 S7        29.87S
PINEY ISLAND   CLEAR    N/A N/A N/A S9        29.89R
WILMINGTON     CLEAR     82  73  74 SW12      29.88S


$$

NCZ011>013-027>030-043-044-078>080-089-090>093-098-020100-
COASTAL PLAIN

CITY           SKY/WX    TMP DP  RH WIND       PRES   REMARKS
AHOSKIE        CLEAR     82  63  52 CALM      29.87R
CLINTON        CLEAR     84  68  58 CALM      29.87R
ELIZABETHTOWN  CLEAR     87  70  56 S3        29.87R
GOLDSBORO      CLEAR     89  63  41 CALM      29.85R
GREENVILLE     CLEAR     82  66  57 CALM      29.89R
HAVELOCK       PTCLDY    80  75  84 SW7       29.90R
KENANSVILLE    PTCLDY    80  70  71 CALM      29.88R
KINSTON        CLEAR     81  68  65 CALM      29.88R
NEW BERN       CLEAR     83  75  77 S9        29.89R
RICHLANDS      CLEAR     84  72  65 S6        29.87S
ROCKY MOUNT    CLEAR     86  59  39 SW5       29.87R
WASHINGTON     CLEAR     83  69  62 CALM      29.87R
WHITEVILLE     CLEAR     83  75  75 S8        29.88R

$$

AMZ130-135-150-152-154-156-158-170-250-252-270-ANZ085-086-088-633-658-670-020100-
MARINE OBSERVATIONS

STATION/POSITION TIME  TEMP    WIND        PRES    WAVE   SWELL
                       AIR SEA DIR/SP/G            HT/PER HT/PER
                 (UTC) (F)     (DEG/KT/KT) (MB)    (FT/S) (FT/S)
CHESAPEAKE LIGHT 0000   80     160/ 17/ 18 1011.9
64 E VA BEACH    2350   80 82  180/ 12/ 14 1011.5    4/ 8   2/ 8
DUCK             2300   83 79  160/ 10/ 13 1010.5
2 E DUCK         2311      80                N/A     2/ 8   2/11
OREGON INLET     2300   83 84  160/  9/ 11 1011.6
13E OREGON INLT  0000      82                N/A     3/ 8
HATTERAS CG      2300   83 81  220/  6/  9 1011.5
DIAMOND BUOY     2350   83 85  230/ 12/ 14 1012.2    3/ 8   2/ 8
CAPE LOOKOUT     0000   80     220/  6/  8 1012.1
BEAUFORT LAB     2300   81 84  220/ 10/ 16 1011.3
30 SE NEW RVR IN NOT AVBL
27 SE WRIGHTSVLE 2300   78 83  240/ 12/ 14   N/A
5 SE WRIGHTSVLE  2308   81 83  230/ 17/ 21 1012.0
225 S CAPE HAT   2350   83 81  210/ 14/ 16 1015.0    6/ 7   5/ 7
41 SE CHARLESTON 2350   80 84  180/  4/  4 1011.9    3/ 7   3/ 7

$$


USA.gov is the U.S. government's official web portal to all federal, state and local government web resources and services.